Flag for U.S.A. Weather past 2 weeks in Provincetown, Massachusetts, U.S.A.

Now
66 °F

Clear.


Feels Like: 66 °F
Forecast: 66 / 78 °F
Wind: 10 mph from Southwest

Location: Provincetown Weather Reporting Station

Current Time: Jul 26, 2014 at 2:13:15 AM

Latest Report: Jul 26, 2014 at 1:35 AM


Visibility: 10 mi

Pressure: 29.98 "Hg

Humidity: 88%

Dew point: 63 °F

Location of ProvincetownLocation

Historic Weather in Provincetown — Graph

°F

Provincetown temperature yesterday

Maximum temperature yesterday: 75 °F (at 2:55 PM)
Minimum temperature yesterday: 63 °F (at 12:15 AM)
Average temperature yesterday: 68 °F

Past Weeks' High & Low Weather Summary

 TemperatureHumidityPressure
High81 °F (Jul 12, 1:15 PM)100% (Jul 11, 3:35 AM)30.28 "Hg (Jul 11, 3:35 AM)
Low55 °F (Jul 19, 5:55 AM)42% (Jul 12, 1:15 PM)29.74 "Hg (Jul 24, 1:35 AM)
Average69 °F85%30.03 "Hg
* Reported Jul 11 12:15 AM — Jul 26 12:55 AM, Provincetown, Weather by CustomWeather, © 2014

Note: Actual official high and low records may vary slightly from our data, if they occured in-between our weather recording intervals... More about our weather records

Advertising

Provincetown weather history for previous 24 hours

 ConditionsComfort  
Time TempWeatherWind HumidityBarometerVisibility
12:55 AM
Jul 26
66 °FClear.13 mph88%29.99 "Hg10 mi
12:35 AM66 °FClear.10 mph88%29.99 "Hg10 mi
12:15 AM66 °FClear.12 mph88%29.99 "Hg10 mi
11:55 PM
Jul 25
66 °FClear.10 mph88%29.99 "Hg10 mi
11:35 PM66 °FClear.8 mph88%29.99 "Hg10 mi
10:55 PM66 °FClear.9 mph88%29.99 "Hg10 mi
10:35 PM68 °FClear.10 mph83%29.99 "Hg10 mi
10:15 PM68 °FClear.9 mph83%29.99 "Hg10 mi
9:55 PM68 °FClear.12 mph83%29.98 "Hg10 mi
9:35 PM68 °FClear.10 mph83%29.98 "Hg10 mi
9:15 PM68 °FClear.12 mph83%29.98 "Hg10 mi
8:55 PM70 °FSunny.9 mph78%29.98 "Hg10 mi
8:35 PM70 °FSunny.9 mph78%29.97 "Hg10 mi
7:55 PM70 °FSunny.10 mph73%29.95 "Hg10 mi
7:35 PM70 °FSunny.9 mph64%29.95 "Hg10 mi
7:15 PM72 °FSunny.9 mph53%29.95 "Hg10 mi
6:55 PM72 °FSunny.9 mph53%29.95 "Hg10 mi
6:35 PM72 °FSunny.8 mph53%29.96 "Hg10 mi
6:15 PM72 °FSunny.10 mph57%29.96 "Hg10 mi
5:55 PM73 °FSunny.No wind47%29.96 "Hg10 mi
5:35 PM73 °FSunny.No wind50%29.95 "Hg10 mi
5:15 PM73 °FSunny.No wind53%29.95 "Hg10 mi
4:55 PM75 °FSunny.No wind47%29.94 "Hg10 mi
4:35 PM75 °FSunny.No wind50%29.94 "Hg10 mi
4:15 PM75 °FSunny.No wind50%29.95 "Hg10 mi
3:55 PM75 °FSunny.No wind47%29.95 "Hg10 mi
3:35 PM75 °FSunny.No wind44%29.95 "Hg10 mi
3:15 PM75 °FSunny.No wind44%29.95 "Hg10 mi
2:55 PM75 °FSunny.No wind44%29.95 "Hg10 mi
2:35 PM73 °FSunny.No wind47%29.95 "Hg10 mi
2:15 PM73 °FSunny.No wind47%29.96 "Hg10 mi
1:55 PM73 °FSunny.No wind50%29.96 "Hg10 mi
1:35 PM73 °FSunny.No wind50%29.96 "Hg10 mi
1:15 PM72 °FSunny.No wind53%29.96 "Hg10 mi
12:55 PM72 °FSunny.No wind57%29.97 "Hg10 mi
12:35 PM70 °FSunny.No wind60%29.98 "Hg10 mi
12:15 PM70 °FSunny.No wind64%29.98 "Hg10 mi
11:55 AM68 °FSunny.No wind69%29.98 "Hg10 mi
11:35 AM70 °FSunny.No wind69%29.98 "Hg10 mi
10:55 AM66 °FSunny.No wind78%29.99 "Hg10 mi
10:35 AM66 °FSunny.No wind78%29.98 "Hg10 mi
10:15 AM66 °FSunny.No wind83%29.98 "Hg10 mi
9:55 AM66 °FSunny.9 mph83%29.97 "Hg10 mi
9:35 AM66 °FSunny.10 mph83%29.97 "Hg10 mi
8:35 AM64 °FSunny.12 mph94%29.95 "Hg10 mi
8:15 AM64 °FSunny.10 mph94%29.95 "Hg10 mi
7:55 AM64 °FSunny.9 mph94%29.95 "Hg10 mi
7:35 AM64 °FSunny.10 mph94%29.95 "Hg10 mi
7:15 AM63 °FSunny.No wind100%29.94 "Hg10 mi
6:55 AM63 °FSunny.No wind94%29.94 "Hg10 mi
6:35 AM63 °FSunny.8 mph94%29.93 "Hg10 mi
6:15 AM63 °FClear.8 mph94%29.93 "Hg10 mi
5:55 AM63 °FClear.9 mph88%29.93 "Hg10 mi
5:35 AM63 °FClear.7 mph88%29.92 "Hg10 mi
4:55 AM63 °FClear.8 mph88%29.92 "Hg10 mi
4:35 AM64 °FClear.10 mph88%29.91 "Hg10 mi
4:15 AM64 °FPassing clouds.10 mph94%29.91 "Hg10 mi
3:55 AM64 °FPassing clouds.8 mph94%29.90 "Hg10 mi
3:35 AM64 °FClear.8 mph94%29.90 "Hg10 mi
3:15 AM64 °FPassing clouds.7 mph94%29.89 "Hg10 mi
2:55 AM64 °FOvercast.6 mph94%29.90 "Hg10 mi
2:35 AM64 °FOvercast.7 mph94%29.90 "Hg10 mi
2:15 AM64 °FPassing clouds.7 mph94%29.90 "Hg10 mi
Weather by CustomWeather, © 2014

See weather overviewHow to use our weather pages